| time (UTC) | temp F | wind direction | speed MPH | gust MPH | rain 1hr in | rain 24hr in | rain mn in | humidity % | barometer mb |
| 20260831102459 | 62 | 61 | 0.0 | 6.0 | 0.00 | 0.00 | 0.00 | 94 | 1019.8 |
| 20260831101959 | 62 | 65 | 0.0 | 4.0 | 0.00 | 0.00 | 0.00 | 94 | 1019.8 |
| 20260831101500 | 62 | 40 | 3.0 | 4.0 | 0.00 | 0.00 | 0.00 | 94 | 1019.8 |
| 20260831100959 | 62 | 46 | 1.0 | 4.0 | 0.00 | 0.00 | 0.00 | 94 | 1019.8 |
| 20260831100459 | 62 | 37 | 2.0 | 4.0 | 0.00 | 0.00 | 0.00 | 94 | 1019.7 |
| 20260831095959 | 62 | 45 | 2.0 | 3.0 | 0.00 | 0.00 | 0.00 | 94 | 1019.8 |
| 20260831095458 | 62 | 88 | 0.0 | 0.0 | 0.00 | 0.00 | 0.00 | 94 | 1019.9 |
| 20260831094959 | 62 | 88 | 0.0 | 2.0 | 0.00 | 0.00 | 0.00 | 94 | 1019.9 |
| 20260831094458 | 62 | 88 | 1.0 | 2.0 | 0.00 | 0.00 | 0.00 | 94 | 1019.8 |
| 20260831093458 | 62 | 89 | 1.0 | 3.0 | 0.00 | 0.00 | 0.00 | 94 | 1019.8 |
| 20260831092958 | 62 | 89 | 0.0 | 0.0 | 0.00 | 0.00 | 0.00 | 94 | 1019.9 |
| 20260831092500 | 62 | 83 | 0.0 | 2.0 | 0.00 | 0.00 | 0.00 | 94 | 1019.8 |
| 20260831090958 | 62 | 98 | 1.0 | 2.0 | 0.00 | 0.00 | 0.00 | 94 | 1019.8 |
| 20260831090458 | 62 | 70 | 0.0 | 3.0 | 0.00 | 0.00 | 0.00 | 94 | 1019.7 |
| 20260831090002 | 62 | 70 | 1.0 | 4.0 | 0.00 | 0.00 | 0.00 | 94 | 1019.6 |
| 20260831085500 | 62 | 67 | 1.0 | 4.0 | 0.00 | 0.00 | 0.00 | 94 | 1019.5 |
| 20260831084500 | 62 | 257 | 0.0 | 0.0 | 0.00 | 0.00 | 0.00 | 94 | 1019.7 |
| 20260831083959 | 62 | 257 | 0.0 | 0.0 | 0.00 | 0.00 | 0.00 | 94 | 1019.8 |
| 20260831083500 | 62 | 252 | 0.0 | 0.0 | 0.00 | 0.00 | 0.00 | 94 | 1019.8 |
| 20260831083000 | 62 | 252 | 0.0 | 0.0 | 0.00 | 0.00 | 0.00 | 94 | 1019.8 |
| 20260831082459 | 62 | 252 | 0.0 | 0.0 | 0.00 | 0.00 | 0.00 | 94 | 1019.7 |
| 20260831081959 | 62 | 252 | 0.0 | 0.0 | 0.00 | 0.00 | 0.00 | 94 | 1019.7 |
| 20260831081459 | 62 | 252 | 0.0 | 0.0 | 0.00 | 0.00 | 0.00 | 94 | 1019.7 |
| 20260831080959 | 62 | 252 | 0.0 | 0.0 | 0.00 | 0.00 | 0.00 | 94 | 1019.6 |
| 20260831080459 | 62 | 252 | 0.0 | 1.0 | 0.00 | 0.00 | 0.00 | 94 | 1019.7 |
| 20260831080000 | 62 | 252 | 0.0 | 1.0 | 0.00 | 0.00 | 0.00 | 94 | 1019.6 |
| 20260831075458 | 62 | 252 | 0.0 | 1.0 | 0.00 | 0.00 | 0.00 | 94 | 1019.5 |
| 20260831074958 | 62 | 252 | 0.0 | 1.0 | 0.00 | 0.00 | 0.00 | 94 | 1019.5 |
| 20260831074459 | 62 | 252 | 1.0 | 2.0 | 0.00 | 0.00 | 0.00 | 94 | 1019.5 |
| 20260831073458 | 63 | 252 | 0.0 | 0.0 | 0.00 | 0.00 | 0.00 | 93 | 1019.7 |
| 20260831072958 | 63 | 252 | 0.0 | 2.0 | 0.00 | 0.00 | 0.00 | 93 | 1019.7 |
| 20260831072458 | 63 | 252 | 0.0 | 2.0 | 0.00 | 0.00 | 0.00 | 93 | 1019.8 |
| 20260831071958 | 63 | 252 | 0.0 | 2.0 | 0.00 | 0.00 | 0.00 | 94 | 1019.6 |
| 20260831071458 | 63 | 252 | 0.0 | 0.0 | 0.00 | 0.00 | 0.00 | 94 | 1019.6 |
| 20260831065959 | 63 | 252 | 0.0 | 3.0 | 0.00 | 0.00 | 0.00 | 93 | 1019.5 |
| 20260831065458 | 63 | 252 | 0.0 | 3.0 | 0.00 | 0.00 | 0.00 | 93 | 1019.5 |
| 20260831063958 | 64 | 252 | 2.0 | 4.0 | 0.00 | 0.00 | 0.00 | 93 | 1019.3 |
| 20260831063458 | 64 | 267 | 2.0 | 4.0 | 0.00 | 0.00 | 0.00 | 93 | 1019.1 |
| 20260831062958 | 64 | 261 | 4.0 | 4.0 | 0.00 | 0.00 | 0.00 | 93 | 1019.0 |
| 20260831062458 | 64 | 257 | 0.0 | 0.0 | 0.00 | 0.00 | 0.00 | 93 | 1018.9 |
| 20260831061958 | 64 | 257 | 0.0 | 3.0 | 0.00 | 0.00 | 0.00 | 93 | 1019.1 |
| 20260831061458 | 64 | 257 | 0.0 | 4.0 | 0.00 | 0.00 | 0.00 | 93 | 1019.2 |
| 20260831060958 | 65 | 257 | 3.0 | 4.0 | 0.00 | 0.00 | 0.00 | 93 | 1019.3 |
| 20260831060458 | 65 | 256 | 1.0 | 2.0 | 0.00 | 0.00 | 0.00 | 93 | 1019.2 |
| 20260831060000 | 65 | 256 | 1.0 | 2.0 | 0.00 | 0.00 | 0.00 | 93 | 1019.1 |
| 20260831055458 | 65 | 256 | 1.0 | 1.0 | 0.00 | 0.00 | 0.00 | 93 | 1019.2 |
| 20260831054958 | 65 | 28 | 0.0 | 0.0 | 0.00 | 0.00 | 0.00 | 93 | 1019.1 |
| 20260831054459 | 65 | 32 | 0.0 | 2.0 | 0.00 | 0.00 | 0.00 | 93 | 1019.1 |
| 20260831053958 | 65 | 28 | 0.0 | 2.0 | 0.00 | 0.00 | 0.00 | 93 | 1019.1 |
| 20260831053458 | 65 | 28 | 0.0 | 4.0 | 0.00 | 0.00 | 0.00 | 93 | 1019.1 |
| 20260831052958 | 65 | 30 | 0.0 | 4.0 | 0.00 | 0.00 | 0.00 | 93 | 1019.1 |
| 20260831052458 | 65 | 53 | 0.0 | 2.0 | 0.00 | 0.00 | 0.00 | 94 | 1019.1 |
| 20260831051958 | 66 | 80 | 1.0 | 2.0 | 0.00 | 0.00 | 0.00 | 94 | 1019.0 |
| 20260831050958 | 66 | 130 | 1.0 | 3.0 | 0.00 | 0.00 | 0.00 | 94 | 1019.3 |
| 20260831050459 | 66 | 24 | 0.0 | 3.0 | 0.00 | 0.00 | 0.00 | 94 | 1019.2 |
| 20260831050000 | 66 | 22 | 1.0 | 3.0 | 0.00 | 0.00 | 0.00 | 94 | 1019.1 |
| 20260831045000 | 67 | 48 | 0.0 | 3.0 | 0.00 | 0.00 | 0.00 | 94 | 1019.0 |
| 20260831043000 | 67 | 118 | 1.0 | 4.0 | 0.00 | 0.00 | 0.00 | 94 | 1018.9 |
| 20260831042501 | 68 | 261 | 0.0 | 0.0 | 0.00 | 0.00 | 0.00 | 94 | 1018.9 |
| 20260831042000 | 68 | 261 | 0.0 | 0.0 | 0.00 | 0.00 | 0.00 | 94 | 1018.9 |
| 20260831041501 | 68 | 261 | 0.0 | 0.0 | 0.00 | 0.00 | 0.00 | 94 | 1019.0 |
| 20260831040500 | 68 | 261 | 0.0 | 0.0 | 0.00 | 0.00 | 0.00 | 94 | 1018.9 |
| 20260831040005 | 68 | 261 | 0.0 | 2.0 | 0.00 | 0.00 | 0.00 | 94 | 1018.9 |
| 20260831035501 | 68 | 261 | 0.0 | 3.0 | 0.00 | 0.00 | 0.00 | 94 | 1018.9 |
| 20260831034001 | 69 | 261 | 1.0 | 3.0 | 0.00 | 0.00 | 0.00 | 94 | 1018.9 |
| 20260831033500 | 69 | 261 | 2.0 | 3.0 | 0.00 | 0.00 | 0.00 | 94 | 1018.9 |
| 20260831033001 | 69 | 261 | 1.0 | 4.0 | 0.00 | 0.00 | 0.00 | 94 | 1018.9 |
| 20260831032501 | 69 | 261 | 2.0 | 4.0 | 0.00 | 0.00 | 0.00 | 94 | 1019.0 |
| 20260831032001 | 69 | 261 | 3.0 | 4.0 | 0.00 | 0.00 | 0.00 | 94 | 1019.0 |
| 20260831031502 | 69 | 261 | 2.0 | 4.0 | 0.00 | 0.00 | 0.00 | 94 | 1019.0 |
| 20260831030501 | 69 | 261 | 3.0 | 6.0 | 0.00 | 0.00 | 0.00 | 94 | 1018.9 |
| 20260831030000 | 69 | 259 | 3.0 | 6.0 | 0.00 | 0.00 | 0.00 | 94 | 1019.0 |
| 20260831025500 | 69 | 257 | 2.0 | 6.0 | 0.00 | 0.00 | 0.00 | 94 | 1019.1 |
| 20260831024500 | 69 | 257 | 3.0 | 6.0 | 0.00 | 0.00 | 0.00 | 93 | 1019.1 |
| 20260831024000 | 69 | 257 | 4.0 | 6.0 | 0.00 | 0.00 | 0.00 | 93 | 1019.1 |
| 20260831023001 | 69 | 250 | 4.0 | 6.0 | 0.00 | 0.00 | 0.00 | 93 | 1019.1 |
| 20260831022501 | 69 | 254 | 4.0 | 5.0 | 0.00 | 0.00 | 0.00 | 93 | 1019.1 |
| 20260831022000 | 69 | 258 | 3.0 | 7.0 | 0.00 | 0.00 | 0.00 | 93 | 1019.0 |
| 20260831021500 | 69 | 257 | 4.0 | 7.0 | 0.00 | 0.00 | 0.00 | 93 | 1018.9 |
| 20260831020004 | 70 | 254 | 5.0 | 8.0 | 0.00 | 0.00 | 0.00 | 93 | 1018.8 |
| 20260831015502 | 70 | 261 | 4.0 | 8.0 | 0.00 | 0.00 | 0.00 | 93 | 1018.9 |
| 20260831015001 | 70 | 253 | 5.0 | 8.0 | 0.00 | 0.00 | 0.00 | 93 | 1018.8 |
| 20260831014501 | 70 | 252 | 7.0 | 8.0 | 0.00 | 0.00 | 0.00 | 93 | 1018.8 |
| 20260831014001 | 70 | 250 | 5.0 | 8.0 | 0.00 | 0.00 | 0.00 | 93 | 1018.7 |
| 20260831013501 | 70 | 248 | 5.0 | 7.0 | 0.00 | 0.00 | 0.00 | 93 | 1018.7 |
| 20260831013003 | 70 | 248 | 4.0 | 7.0 | 0.00 | 0.00 | 0.00 | 93 | 1018.7 |
| 20260831012001 | 70 | 250 | 3.0 | 7.0 | 0.00 | 0.00 | 0.00 | 93 | 1018.7 |
| 20260831011503 | 70 | 247 | 5.0 | 7.0 | 0.00 | 0.00 | 0.00 | 93 | 1018.6 |
| 20260831011001 | 70 | 250 | 5.0 | 5.0 | 0.00 | 0.00 | 0.00 | 93 | 1018.7 |
| 20260831010501 | 70 | 249 | 4.0 | 5.0 | 0.00 | 0.00 | 0.00 | 93 | 1018.7 |
| 20260831010003 | 70 | 255 | 3.0 | 6.0 | 0.00 | 0.00 | 0.00 | 92 | 1018.7 |
| 20260831005500 | 70 | 254 | 4.0 | 5.0 | 0.00 | 0.00 | 0.00 | 92 | 1018.7 |
| 20260831005000 | 70 | 254 | 4.0 | 6.0 | 0.00 | 0.00 | 0.00 | 92 | 1018.7 |
| 20260831004500 | 70 | 258 | 4.0 | 6.0 | 0.00 | 0.00 | 0.00 | 92 | 1018.7 |
| 20260831003500 | 70 | 254 | 3.0 | 4.0 | 0.00 | 0.00 | 0.00 | 92 | 1018.6 |
| 20260831003000 | 70 | 254 | 3.0 | 4.0 | 0.00 | 0.00 | 0.00 | 91 | 1018.6 |
| 20260831002501 | 70 | 254 | 3.0 | 3.0 | 0.00 | 0.00 | 0.00 | 91 | 1018.6 |
| 20260831001959 | 70 | 254 | 3.0 | 4.0 | 0.00 | 0.00 | 0.00 | 91 | 1018.6 |
| 20260831001500 | 71 | 254 | 2.0 | 4.0 | 0.00 | 0.00 | 0.00 | 91 | 1018.5 |
| 20260831001000 | 71 | 254 | 3.0 | 3.0 | 0.00 | 0.00 | 0.00 | 91 | 1018.5 |
| 20260831000500 | 71 | 254 | 2.0 | 3.0 | 0.00 | 0.00 | 0.00 | 90 | 1018.5 |
| 20260831000003 | 71 | 254 | 1.0 | 3.0 | 0.00 | 0.00 | 0.00 | 90 | 1018.4 |
| 20260830235500 | 71 | 254 | 2.0 | 3.0 | 0.00 | 0.00 | 0.00 | 90 | 1018.4 |
| 20260830235000 | 71 | 254 | 3.0 | 4.0 | 0.00 | 0.00 | 0.00 | 90 | 1018.3 |
| 20260830234500 | 71 | 254 | 3.0 | 4.0 | 0.00 | 0.00 | 0.00 | 90 | 1018.3 |
| 20260830233000 | 71 | 254 | 2.0 | 4.0 | 0.00 | 0.00 | 0.00 | 89 | 1018.3 |
| 20260830232501 | 71 | 254 | 3.0 | 4.0 | 0.00 | 0.00 | 0.00 | 89 | 1018.3 |
| 20260830232000 | 71 | 254 | 2.0 | 3.0 | 0.00 | 0.00 | 0.00 | 89 | 1018.2 |
| 20260830231501 | 71 | 254 | 1.0 | 3.0 | 0.00 | 0.00 | 0.00 | 88 | 1018.2 |
| 20260830230500 | 71 | 254 | 2.0 | 4.0 | 0.00 | 0.00 | 0.00 | 88 | 1018.2 |
| 20260830230003 | 71 | 254 | 3.0 | 4.0 | 0.00 | 0.00 | 0.00 | 88 | 1018.3 |
| 20260830225459 | 71 | 254 | 1.0 | 4.0 | 0.00 | 0.00 | 0.00 | 87 | 1018.4 |
| 20260830225000 | 72 | 254 | 1.0 | 4.0 | 0.00 | 0.00 | 0.00 | 87 | 1018.4 |
| 20260830224503 | 72 | 254 | 2.0 | 3.0 | 0.00 | 0.00 | 0.00 | 87 | 1018.3 |
| 20260830223459 | 72 | 254 | 1.0 | 3.0 | 0.00 | 0.00 | 0.00 | 86 | 1018.3 |
| 20260830223000 | 72 | 254 | 2.0 | 3.0 | 0.00 | 0.00 | 0.00 | 86 | 1018.4 |
| 20260830222500 | 72 | 254 | 1.0 | 3.0 | 0.00 | 0.00 | 0.00 | 86 | 1018.4 |
| 20260830221500 | 72 | 254 | 2.0 | 8.0 | 0.00 | 0.00 | 0.00 | 86 | 1018.5 |
| 20260830221001 | 72 | 246 | 2.0 | 8.0 | 0.00 | 0.00 | 0.00 | 85 | 1018.4 |
| 20260830220500 | 72 | 243 | 2.0 | 5.0 | 0.00 | 0.00 | 0.00 | 85 | 1018.4 |
| 20260830220000 | 72 | 249 | 5.0 | 5.0 | 0.00 | 0.00 | 0.00 | 85 | 1018.4 |
| 20260830215503 | 72 | 248 | 3.0 | 4.0 | 0.00 | 0.00 | 0.00 | 85 | 1018.4 |
| 20260830214959 | 72 | 250 | 1.0 | 4.0 | 0.00 | 0.00 | 0.00 | 85 | 1018.3 |
| 20260830214501 | 72 | 250 | 2.0 | 5.0 | 0.00 | 0.00 | 0.00 | 85 | 1018.4 |
| 20260830214000 | 73 | 252 | 3.0 | 5.0 | 0.00 | 0.00 | 0.00 | 85 | 1018.4 |
| 20260830212500 | 73 | 252 | 3.0 | 6.0 | 0.00 | 0.00 | 0.00 | 84 | 1018.3 |
| 20260830212000 | 73 | 249 | 3.0 | 5.0 | 0.00 | 0.00 | 0.00 | 84 | 1018.3 |
| 20260830211500 | 73 | 244 | 2.0 | 5.0 | 0.00 | 0.00 | 0.00 | 84 | 1018.3 |
| 20260830211004 | 73 | 259 | 3.0 | 5.0 | 0.00 | 0.00 | 0.00 | 83 | 1018.4 |
| 20260830210004 | 73 | 241 | 4.0 | 7.0 | 0.00 | 0.00 | 0.00 | 83 | 1018.4 |
| 20260830205500 | 73 | 248 | 5.0 | 7.0 | 0.00 | 0.00 | 0.00 | 83 | 1018.6 |
| 20260830204459 | 73 | 254 | 3.0 | 6.0 | 0.00 | 0.00 | 0.00 | 83 | 1018.6 |
| 20260830204000 | 73 | 256 | 3.0 | 6.0 | 0.00 | 0.00 | 0.00 | 82 | 1018.6 |
| 20260830203500 | 73 | 254 | 4.0 | 4.0 | 0.00 | 0.00 | 0.00 | 82 | 1018.7 |
| 20260830203000 | 73 | 257 | 2.0 | 4.0 | 0.00 | 0.00 | 0.00 | 82 | 1018.7 |
| 20260830202500 | 73 | 254 | 4.0 | 4.0 | 0.00 | 0.00 | 0.00 | 82 | 1018.7 |
| 20260830202000 | 73 | 254 | 3.0 | 4.0 | 0.00 | 0.00 | 0.00 | 81 | 1018.8 |
| 20260830201501 | 73 | 257 | 3.0 | 5.0 | 0.00 | 0.00 | 0.00 | 81 | 1018.8 |
| 20260830201000 | 73 | 254 | 4.0 | 8.0 | 0.00 | 0.00 | 0.00 | 80 | 1018.7 |
| 20260830200501 | 73 | 252 | 3.0 | 8.0 | 0.00 | 0.00 | 0.00 | 79 | 1018.9 |
| 20260830200003 | 73 | 257 | 4.0 | 5.0 | 0.00 | 0.00 | 0.00 | 79 | 1018.8 |
| 20260830195500 | 73 | 253 | 3.0 | 5.0 | 0.00 | 0.00 | 0.00 | 78 | 1018.8 |
| 20260830195000 | 73 | 256 | 3.0 | 6.0 | 0.00 | 0.00 | 0.00 | 80 | 1018.8 |
| 20260830194500 | 74 | 257 | 1.0 | 4.0 | 0.00 | 0.00 | 0.00 | 78 | 1018.9 |
| 20260830194000 | 74 | 257 | 3.0 | 4.0 | 0.00 | 0.00 | 0.00 | 77 | 1019.0 |
| 20260830193500 | 74 | 257 | 2.0 | 4.0 | 0.00 | 0.00 | 0.00 | 77 | 1018.9 |
| 20260830192959 | 74 | 257 | 2.0 | 7.0 | 0.00 | 0.00 | 0.00 | 77 | 1019.0 |
| 20260830192500 | 74 | 257 | 2.0 | 7.0 | 0.00 | 0.00 | 0.00 | 75 | 1019.2 |
| 20260830192000 | 74 | 251 | 4.0 | 4.0 | 0.00 | 0.00 | 0.00 | 74 | 1019.3 |
| 20260830191500 | 75 | 257 | 2.0 | 6.0 | 0.00 | 0.00 | 0.00 | 73 | 1019.4 |
| 20260830191000 | 75 | 238 | 3.0 | 6.0 | 0.00 | 0.00 | 0.00 | 70 | 1019.6 |
| 20260830190500 | 76 | 229 | 3.0 | 7.0 | 0.00 | 0.00 | 0.00 | 70 | 1019.5 |
| 20260830185458 | 76 | 238 | 4.0 | 7.0 | 0.00 | 0.00 | 0.00 | 69 | 1019.7 |
| 20260830184959 | 76 | 251 | 2.0 | 6.0 | 0.00 | 0.00 | 0.00 | 69 | 1019.8 |
| 20260830184000 | 77 | 233 | 2.0 | 7.0 | 0.00 | 0.00 | 0.00 | 66 | 1019.9 |
| 20260830183458 | 77 | 251 | 7.0 | 7.0 | 0.00 | 0.00 | 0.00 | 67 | 1019.9 |
| 20260830182958 | 77 | 250 | 3.0 | 5.0 | 0.00 | 0.00 | 0.00 | 71 | 1019.8 |
| 20260830182459 | 78 | 237 | 3.0 | 5.0 | 0.00 | 0.00 | 0.00 | 70 | 1019.9 |
| 20260830181959 | 78 | 233 | 1.0 | 7.0 | 0.00 | 0.00 | 0.00 | 65 | 1020.0 |
| 20260830180958 | 77 | 252 | 5.0 | 7.0 | 0.00 | 0.00 | 0.00 | 69 | 1020.1 |
| 20260830180459 | 76 | 240 | 3.0 | 7.0 | 0.00 | 0.00 | 0.00 | 70 | 1020.1 |
| 20260830180000 | 77 | 262 | 3.0 | 7.0 | 0.00 | 0.00 | 0.00 | 66 | 1020.1 |
| 20260830174459 | 77 | 253 | 2.0 | 4.0 | 0.00 | 0.00 | 0.00 | 72 | 1020.2 |
| 20260830173959 | 76 | 251 | 2.0 | 6.0 | 0.00 | 0.00 | 0.00 | 72 | 1020.2 |
| 20260830173459 | 76 | 238 | 1.0 | 6.0 | 0.00 | 0.00 | 0.00 | 69 | 1020.3 |
| 20260830172959 | 77 | 232 | 3.0 | 5.0 | 0.00 | 0.00 | 0.00 | 68 | 1020.4 |
| 20260830172458 | 77 | 238 | 4.0 | 7.0 | 0.00 | 0.00 | 0.00 | 67 | 1020.5 |
| 20260830171959 | 78 | 252 | 3.0 | 6.0 | 0.00 | 0.00 | 0.00 | 65 | 1020.5 |
| 20260830171459 | 77 | 254 | 5.0 | 6.0 | 0.00 | 0.00 | 0.00 | 69 | 1020.4 |
| 20260830170958 | 76 | 259 | 3.0 | 4.0 | 0.00 | 0.00 | 0.00 | 70 | 1020.5 |
| 20260830170459 | 76 | 256 | 1.0 | 6.0 | 0.00 | 0.00 | 0.00 | 71 | 1020.5 |
| 20260830165959 | 77 | 256 | 3.0 | 6.0 | 0.00 | 0.00 | 0.00 | 67 | 1020.7 |
| 20260830165459 | 77 | 257 | 2.0 | 5.0 | 0.00 | 0.00 | 0.00 | 69 | 1020.7 |
| 20260830164958 | 77 | 252 | 4.0 | 8.0 | 0.00 | 0.00 | 0.00 | 69 | 1020.6 |
| 20260830164459 | 77 | 252 | 5.0 | 8.0 | 0.00 | 0.00 | 0.00 | 67 | 1020.7 |
| 20260830163958 | 77 | 260 | 4.0 | 7.0 | 0.00 | 0.00 | 0.00 | 67 | 1020.7 |
| 20260830163459 | 77 | 236 | 3.0 | 7.0 | 0.00 | 0.00 | 0.00 | 65 | 1020.8 |
| 20260830162959 | 77 | 250 | 2.0 | 7.0 | 0.00 | 0.00 | 0.00 | 68 | 1020.8 |
| 20260830162000 | 76 | 255 | 2.0 | 7.0 | 0.00 | 0.00 | 0.00 | 66 | 1021.1 |
| 20260830160959 | 76 | 258 | 2.0 | 6.0 | 0.00 | 0.00 | 0.00 | 68 | 1021.1 |
| 20260830160458 | 76 | 223 | 3.0 | 7.0 | 0.00 | 0.00 | 0.00 | 70 | 1021.2 |
| 20260830155959 | 75 | 257 | 3.0 | 6.0 | 0.00 | 0.00 | 0.00 | 73 | 1021.3 |
| 20260830154959 | 74 | 257 | 2.0 | 5.0 | 0.00 | 0.00 | 0.00 | 70 | 1021.3 |
| 20260830153958 | 74 | 253 | 2.0 | 7.0 | 0.00 | 0.00 | 0.00 | 70 | 1021.4 |
| 20260830153458 | 74 | 254 | 3.0 | 7.0 | 0.00 | 0.00 | 0.00 | 69 | 1021.5 |
| 20260830152959 | 74 | 247 | 4.0 | 7.0 | 0.00 | 0.00 | 0.00 | 70 | 1021.6 |
| 20260830152458 | 74 | 251 | 4.0 | 7.0 | 0.00 | 0.00 | 0.00 | 70 | 1021.7 |
| 20260830151959 | 74 | 258 | 3.0 | 5.0 | 0.00 | 0.00 | 0.00 | 72 | 1021.8 |
| 20260830151459 | 74 | 255 | 2.0 | 7.0 | 0.00 | 0.00 | 0.00 | 68 | 1021.9 |
| 20260830150959 | 74 | 261 | 4.0 | 7.0 | 0.00 | 0.00 | 0.00 | 71 | 1021.9 |
| 20260830150458 | 73 | 257 | 2.0 | 4.0 | 0.00 | 0.00 | 0.00 | 71 | 1021.9 |
| 20260830145959 | 73 | 250 | 1.0 | 4.0 | 0.00 | 0.00 | 0.00 | 71 | 1022.0 |
| 20260830145459 | 73 | 249 | 1.0 | 4.0 | 0.00 | 0.00 | 0.00 | 72 | 1022.0 |
| 20260830144959 | 72 | 248 | 2.0 | 5.0 | 0.00 | 0.00 | 0.00 | 72 | 1022.0 |
| 20260830144459 | 72 | 248 | 4.0 | 5.0 | 0.00 | 0.00 | 0.00 | 72 | 1022.0 |
| 20260830144000 | 72 | 241 | 2.0 | 6.0 | 0.00 | 0.00 | 0.00 | 73 | 1022.1 |
| 20260830143500 | 72 | 261 | 6.0 | 6.0 | 0.00 | 0.00 | 0.00 | 73 | 1022.1 |
| 20260830143000 | 71 | 255 | 1.0 | 6.0 | 0.00 | 0.00 | 0.00 | 74 | 1022.2 |
| 20260830142500 | 71 | 255 | 2.0 | 7.0 | 0.00 | 0.00 | 0.00 | 75 | 1022.1 |
| 20260830142000 | 71 | 262 | 7.0 | 7.0 | 0.00 | 0.00 | 0.00 | 74 | 1022.2 |
| 20260830141501 | 70 | 255 | 2.0 | 5.0 | 0.00 | 0.00 | 0.00 | 76 | 1022.2 |
| 20260830141000 | 70 | 257 | 3.0 | 6.0 | 0.00 | 0.00 | 0.00 | 76 | 1022.2 |
| 20260830140459 | 69 | 261 | 4.0 | 6.0 | 0.00 | 0.00 | 0.00 | 76 | 1022.3 |
| 20260830135959 | 69 | 261 | 3.0 | 4.0 | 0.00 | 0.00 | 0.00 | 77 | 1022.3 |
| 20260830135458 | 69 | 259 | 1.0 | 4.0 | 0.00 | 0.00 | 0.00 | 79 | 1022.4 |
| 20260830133959 | 67 | 265 | 2.0 | 4.0 | 0.00 | 0.00 | 0.00 | 80 | 1022.3 |
| 20260830133459 | 67 | 265 | 3.0 | 4.0 | 0.00 | 0.00 | 0.00 | 80 | 1022.3 |
| 20260830132959 | 67 | 265 | 2.0 | 4.0 | 0.00 | 0.00 | 0.00 | 82 | 1022.3 |
| 20260830132459 | 66 | 265 | 2.0 | 3.0 | 0.00 | 0.00 | 0.00 | 82 | 1022.4 |
| 20260830131958 | 65 | 265 | 1.0 | 3.0 | 0.00 | 0.00 | 0.00 | 83 | 1022.5 |
| 20260830131459 | 65 | 265 | 1.0 | 3.0 | 0.00 | 0.00 | 0.00 | 83 | 1022.5 |
| 20260830130959 | 65 | 265 | 2.0 | 3.0 | 0.00 | 0.00 | 0.00 | 83 | 1022.6 |
| 20260830130458 | 65 | 265 | 2.0 | 3.0 | 0.00 | 0.00 | 0.00 | 84 | 1022.7 |
| 20260830130003 | 65 | 265 | 2.0 | 3.0 | 0.00 | 0.00 | 0.00 | 84 | 1022.6 |
| 20260830125500 | 64 | 265 | 3.0 | 3.0 | 0.00 | 0.00 | 0.00 | 85 | 1022.6 |
| 20260830125000 | 64 | 265 | 2.0 | 3.0 | 0.00 | 0.00 | 0.00 | 86 | 1022.6 |
| 20260830124459 | 63 | 265 | 2.0 | 3.0 | 0.00 | 0.00 | 0.00 | 86 | 1022.6 |
| 20260830123959 | 63 | 265 | 2.0 | 4.0 | 0.00 | 0.00 | 0.00 | 87 | 1022.6 |
| 20260830123459 | 63 | 265 | 2.0 | 4.0 | 0.00 | 0.00 | 0.00 | 86 | 1022.6 |
| 20260830122959 | 62 | 265 | 2.0 | 3.0 | 0.00 | 0.00 | 0.00 | 86 | 1022.7 |
| 20260830122500 | 62 | 265 | 2.0 | 3.0 | 0.00 | 0.00 | 0.00 | 87 | 1022.7 |
| 20260830121459 | 62 | 265 | 1.0 | 3.0 | 0.00 | 0.00 | 0.00 | 87 | 1022.7 |
| 20260830120959 | 62 | 265 | 2.0 | 3.0 | 0.00 | 0.00 | 0.00 | 86 | 1022.8 |
| 20260830120500 | 62 | 265 | 1.0 | 3.0 | 0.00 | 0.00 | 0.00 | 87 | 1022.8 |
| 20260830115958 | 62 | 265 | 1.0 | 3.0 | 0.00 | 0.00 | 0.00 | 87 | 1022.8 |
| 20260830115458 | 62 | 265 | 2.0 | 3.0 | 0.00 | 0.00 | 0.00 | 87 | 1022.9 |
| 20260830114959 | 62 | 265 | 2.0 | 3.0 | 0.00 | 0.00 | 0.00 | 87 | 1022.8 |
| 20260830114458 | 62 | 265 | 3.0 | 3.0 | 0.00 | 0.00 | 0.00 | 85 | 1022.8 |
| 20260830113458 | 62 | 265 | 2.0 | 3.0 | 0.00 | 0.00 | 0.00 | 85 | 1022.6 |
| 20260830112959 | 62 | 265 | 2.0 | 3.0 | 0.00 | 0.00 | 0.00 | 85 | 1022.7 |
| 20260830112459 | 62 | 265 | 1.0 | 3.0 | 0.00 | 0.00 | 0.00 | 85 | 1022.6 |
| 20260830111958 | 62 | 265 | 2.0 | 3.0 | 0.00 | 0.00 | 0.00 | 85 | 1022.7 |
| 20260830111459 | 61 | 265 | 1.0 | 3.0 | 0.00 | 0.00 | 0.00 | 85 | 1022.7 |
| 20260830110959 | 61 | 265 | 2.0 | 3.0 | 0.00 | 0.00 | 0.00 | 85 | 1022.7 |
| 20260830105500 | 61 | 265 | 1.0 | 3.0 | 0.00 | 0.00 | 0.00 | 87 | 1022.6 |
| 20260830104000 | 60 | 265 | 2.0 | 3.0 | 0.00 | 0.00 | 0.00 | 87 | 1022.5 |
| 20260830103459 | 60 | 265 | 2.0 | 3.0 | 0.00 | 0.00 | 0.00 | 87 | 1022.6 |